Regional Weather Roundup
Issued by NWS Sioux Falls, SD

Home | Current Version | Previous Version | Text Only | Print | Product List | Glossary On
Versions: 1 2 3 4 5 6 7 8 9 10 11 12 13 14 15 16 17 18 19 20 21 22 23 24 25 26 27 28 29 30 31 32 33 34 35 36 37 38 39 40 41 42 43 44 45 46 47 48 49 50
000
ASUS43 KFSD 270402
RWRFSD

WEATHER ROUNDUP FOR SE SOUTH DAKOTA/SW MINNESOTA/NW IOWA
NATIONAL WEATHER SERVICE SIOUX FALLS SD
1100 PM CDT FRI AUG 26 2016

NOTE: "FAIR" INDICATES FEW OR NO CLOUDS BELOW 12,000 FEET WITH NO
SIGNIFICANT WEATHER AND OR OBSTRUCTIONS TO VISIBILITY.


SDZ038>040-050-052>070-270500-
SOUTHEAST SOUTH DAKOTA

CITY           SKY/WX    TMP DP  RH WIND       PRES   REMARKS
BROOKINGS      CLOUDY    64  58  80 SE6       30.09S
CHAMBERLAIN    CLOUDY    62  57  85 E5        30.05S
HURON          CLOUDY    65  57  75 SE7       30.05R
MADISON        MOCLDY    63  63 100 SE8       30.09S
MITCHELL       CLOUDY    67  59  75 SE12G18   30.06R
SIOUX FALLS    CLOUDY    66  59  78 SE12      30.08S
WINNER         FAIR      59  56  89 SE5       30.05R
YANKTON        CLOUDY    64  59  82 E10       30.05S
$$

MNZ071-072-080-081-089-090-097-098-270500-
SOUTHWEST MINNESOTA

CITY           SKY/WX    TMP DP  RH WIND       PRES   REMARKS
FAIRMONT       CLOUDY    62  59  90 SE5       30.11F
JACKSON          N/A     63  57  82 E7        30.12S
LUVERNE        CLOUDY    61  55  82 SE7       30.10S
MARSHALL       CLOUDY    63  59  87 SE5       30.10R
MONTEVIDEO     PTCLDY    63  57  82 S6        30.11S
REDWOOD FALLS  CLOUDY    63  57  81 SE7       30.09S
TRACY          CLOUDY    63  59  86 SE6       30.10S
WINDOM         CLOUDY    63  57  82 SE6       30.10F
WORTHINGTON    CLOUDY    61  59  93 SE7       30.11F
$$

IAZ001>003-012>014-020>022-031-032-NEZ013-014-SDZ071-270500-
NORTHWEST IOWA

CITY           SKY/WX    TMP DP  RH WIND       PRES   REMARKS
CHEROKEE       CLOUDY    64  61  90 E3        30.10S
DENISON        CLOUDY    63  61  94 E9        30.06S
ESTHERVILLE    CLOUDY    61  61 100 E5        30.11S
LE MARS        CLOUDY    64  61  88 SE5       30.09S
ORANGE CITY    CLOUDY    64  63  94 SE7       30.10R
SHELDON        CLOUDY    63  63 100 SE6       30.09S
SIOUX CITY     CLOUDY    65  60  84 E7        30.07S
SPENCER        CLOUDY    64  59  83 SE10      30.10F
STORM LAKE     CLOUDY    63  61  94 E9        30.09F
$$

ABBREVIATIONS USED IN REMARKS
   TC - TEMPERATURE IN CELSIUS
  WCI - WIND CHILL INDEX
   HX - HEAT INDEX
  VSB - VISIBILITY





USA.gov is the U.S. government's official web portal to all federal, state and local government web resources and services.